OBJECT BD, 68467

Orbit data source: Space-Track

You're viewing an uncataloged RSO

Recently launched and/or uncataloged RSOs may have evolving metadata. Metadata may include the following, but is not limited to: Owner, Manufacturer, Bus, Motor, and Mission.

OBJECT BD, 68467 is a satellite in SSO that was launched on Mon, 30 Mar 2026 UTC via an FALCON 9 launch vehicle from the Air Force Western Test Range (AFWTR). Unknown objects in Earth's orbit typically refer to objects detected orbiting the Earth but have not yet been identified or cataloged. These objects could be anything from previously untracked satellites, spent rocket stages, debris from satellite collisions, or even natural meteoroids temporarily captured by Earth's gravity.

Loading next visibility...
Identifier
68467, 2026-067BD
Orbit
SSO
Country
Flag of TBDTBD
Related business
None
Manufacturer
Unknown
Mission
Operational Amateur Communications
Bus & Motor
Unknown
Mass
Unknown
Launch date (UTC)
2026-03-30 (5 months ago)
Launch vehicle
FALCON 9
Launch site
Air Force Western Test Range (AFWTR)
Object type
Unknown
Shape & HBR
Box, 0.1 m
Radar Cross Section
0.035 m², Small (<0.1 m²)

Expand to show TLE details & history
Last TLE update: 12 hours ago

TLE from 12 hours ago
0 OBJECT BD
1 68467U 26067BD  26249.37664094  .00010354  00000-0  46453-3 0  9992
2 68467  97.4470 206.6379 0007379 135.4208 224.7622 15.21360917 24271
Epoch: 2026-09-06T09:02Z
TLE epoch observation values (Epoch: 2026-09-06T09:02:21.777Z)
Latitude
-0.00005°
Longitude
85.57453°
Altitude
508.433 km
Speed
7.608 km/s
True Right ascension
13h 46m 33s
True Declination
0° 00' 00"
Sunlit
Object was in daylight at epoch
Visualization orbit readout
Latitude
Unknown
Longitude
Unknown
Altitude
Unknown
Speed
Unknown
Apparent Right ascension
Unknown
Apparent Declination
Unknown
Sunlit
N/A
Visualization observer readout
Local Sidereal Time
12:42:55
Azimuth
Unknown
Elevation
Unknown
Doppler factor
Unknown
Orbital elements
Apogee altitude
503.775 km
Perigee altitude
493.626 km
Semi-major axis
6,876.837 km
Eccentricity
0.00074
Inclination
97.447°
RAAN
206.6379°
Arg. of periapsis
135.4208°
True anomaly
224.7027°
Mean anomaly
224.7622°
Eccentric anomaly
224.73244°
Mean motion
3.80592 °/min
Orbital period
94.59 mins
BSTAR
0.00046453
Loading maneuver chart data...
Computing Atmospheric mass density...
Loading historical data...
Loading historical data...
Loading historical data...
Loading historical data...
Loading historical data...
Loading historical data...
Loading historical data...

Documentation

Showing up to 5 results
|